693  
NZUS99 KDVN 231110  
HRRRRR  
HOURLY WEATHER ROUNDUP  
NATIONAL WEATHER SERVICE QUAD CITIES IA IL  
600 AM CDT TUE OCT 23 2018  
 
NOTE: "FAIR" INDICATES FEW OR NO CLOUDS BELOW 12,000 FEET WITH  
NO SIGNIFICANT WEATHER AND/OR OBSTRUCTIONS TO VISIBILITY.  
------------------------------------------------------------------  
 
CITY SKY/WX TMP DP RH WIND PRES REMARKS  
BURLINGTON CLEAR 40 30 67 NW6 30.27R WCI 36  
CEDAR RAPIDS FAIR 31 27 85 NW7 30.28R WCI 24  
DAVENPORT FAIR 31 26 82 NW7 30.27R WCI 24  
DUBUQUE FAIR 36 26 67 N6 30.26R WCI 31  
IOWA CITY FAIR 39 30 70 NW6 30.30R WCI 35  
MOLINE FAIR 40 29 64 NW5 30.26R WCI 37  
------------------------------------------------------------------  
THE STATIONS BELOW ARE NOT NWS STATIONS AND ARE NOT SUBJECT TO NWS  
QUALITY CONTROL. SOME STATIONS DO NOT REPORT WEATHER SUCH AS FOG.  
* - STATIONS THAT REPORT TMP AND DP IN WHOLE DEGREES CELSIUS, WHICH  
ARE THEN CONVERTED TO FAHRENHEIT.  
------------------------------------------------------------------  
 
CITY SKY/WX TMP DP RH WIND PRES REMARKS  
CLINTON FAIR 33 28 81 NW8 30.26R WCI 26  
FAIRFIELD * PTCLDY 36 28 75 NW7 30.28R WCI 30  
FORT MADISON * CLEAR 37 32 81 N3 30.28R  
FREEPORT FAIR 37 27 68 NW6 30.26R WCI 32  
INDEPENDENCE * FAIR 32 28 87 N6 30.29R WCI 26  
KEOKUK * CLEAR 41 32 70 N6 30.26R WCI 37  
MACOMB CLEAR 37 31 79 N8 30.27R WCI 31  
MONTICELLO * FAIR 30 28 93 CALM 30.27R  
MT PLEASANT CLEAR 41 32 70 NW3 30.28R  
MUSCATINE * FAIR 37 30 75 NW8 30.28R WCI 31  
SAVANNA FAIR 39 28 65 N6 30.26R WCI 35  
STERLING/R.F. FAIR 36 29 75 NW7 30.25R WCI 30  
VINTON * FAIR 33 27 79 NW3 30.29R  
WASHINGTON * CLEAR 34 32 93 NW8 30.29R WCI 27  
------------------------------------------------------------------  
 
 
CLICK HERE TO GO TO PREVIOUS BULLETINS.

The Nexlab IL Page
The Nexlab IA Page
The Nexlab MO Page Main Text Page